(221369) = 2005 WB183

Discovered at Palomar on 2005-11-28 by NEAT.

Orbit

Orbit type: Main Belt

Note: WebGL enabled browser required.

epoch2024-03-31.0
epoch JD2460400.5
perihelion date2023-05-21.54988
perihelion JD2460086.04988
argument of perihelion (°)282.34462
ascending node (°)116.93563
inclination (°)12.11759
eccentricity0.0685126
perihelion distance (AU)2.5040697
Tisserand w.r.t. Jupiter3.3
ΔV w.r.t. Earth (km/sec)10.6
semimajor axis (AU)2.6882485
mean anomaly (°)70.31557
mean daily motion (°/day)0.22361440
aphelion distance (AU)2.872
period (years)4.41
P-vector [x]0.75465374
P-vector [y]0.65339495
P-vector [z]0.05977269
Q-vector [x]-0.62886736
Q-vector [y]0.69431278
Q-vector [z]0.34993658
absolute magnitude15.99
phase slope0.15
uncertainty0
referenceMPEC 2024-C163
observations used524
oppositions16
arc length (days)8537
first opposition used2000
last opposition used2024
residual rms (arc-secs)0.80
perturbers coarse indicatorM-v
perturbers precise indicator003Ek
first observation date used2000-08-26.0
last observation date used2024-01-10.0
computer nameMPCLINUX
JD of orbit computation2456494.356911
perihelion JD uncertainty (days)7.9477E-05
argument of perihelion uncertainty (°)2.3720E-05
ascending node uncertainty (°)1.7371E-05
inclination uncertainty (°)2.0243E-06
eccentricity uncertainty 3.6831E-08
perihelion distance uncertainty (AU)1.0071E-07
Minimum Orbit Intersection Distances (in AU)
for orbit epoch: 2460200.5, reference: E2024-CG3
Mercury2.17814
Venus1.79533
Earth1.54598
Mars1.0057
Jupiter2.40783
Saturn6.46339
Uranus15.6845
Neptune27.3738

Observations

543 total observations over interval: 2000 08 26.33559 – 2024 01 10.271133
These data are available for download (format description).

Date (UT) J2000 RA J2000 Dec Magn Location Ref
2000 08 26.33559 22 57 36.08 -20 11 38.5 18.9   704 – Lincoln Laboratory ETS, New Mexico MPS 160500
2000 08 26.34894 22 57 35.59 -20 11 46.2 19.3   704 – Lincoln Laboratory ETS, New Mexico MPS 160500
2000 08 26.36231 22 57 34.90 -20 11 54.0 19.3   704 – Lincoln Laboratory ETS, New Mexico MPS 160500
2000 08 26.37566 22 57 34.38 -20 12 00.6 19.5   704 – Lincoln Laboratory ETS, New Mexico MPS 160500
2000 08 26.38905 22 57 33.67 -20 12 07.2 19.1   704 – Lincoln Laboratory ETS, New Mexico MPS 160500
2003 04 01.421460 13 49 42.926 +08 10 47.79 20.15 V 645 – Apache Point-Sloan Digital Sky Survey MPS 160500
2003 04 01.424932 13 49 42.765 +08 10 49.21 21.05   645 – Apache Point-Sloan Digital Sky Survey MPS 160500
2003 04 04.32242 13 47 31.29 +08 29 54.1 19.6 R 699 – Lowell Observatory-LONEOS MPS 160500
2003 04 04.33573 13 47 30.62 +08 29 57.7   699 – Lowell Observatory-LONEOS MPS 160500
2003 04 04.34903 13 47 29.91 +08 30 02.7   699 – Lowell Observatory-LONEOS MPS 160500
2003 04 04.36232 13 47 29.46 +08 30 08.5   699 – Lowell Observatory-LONEOS MPS 160500
2003 04 27.166790 13 29 00.971 +10 14 30.93 20.26 V 645 – Apache Point-Sloan Digital Sky Survey MPS 160500
2003 04 27.170262 13 29 00.810 +10 14 31.49 21.16   645 – Apache Point-Sloan Digital Sky Survey MPS 160500
2004 07 16.28527 19 38 10.54 -20 11 32.4 20.3   704 – Lincoln Laboratory ETS, New Mexico MPS 160500
2004 07 16.30682 19 38 09.44 -20 11 39.3 19.8   704 – Lincoln Laboratory ETS, New Mexico MPS 160500
2004 07 16.31754 19 38 08.88 -20 11 44.0 19.8   704 – Lincoln Laboratory ETS, New Mexico MPS 160500
2005 10 08.37077 03 58 37.18 +02 42 17.3 19.9 R 699 – Lowell Observatory-LONEOS MPS 160500
2005 10 08.39998 03 58 36.62 +02 42 09.9   699 – Lowell Observatory-LONEOS MPS 160500
2005 10 08.42924 03 58 36.17 +02 42 03.2   699 – Lowell Observatory-LONEOS MPS 160500
2005 10 08.45850 03 58 35.76 +02 41 54.3   699 – Lowell Observatory-LONEOS MPS 160500
2005 10 30.376547 03 47 23.962 +01 08 07.28 19.87 V 645 – Apache Point-Sloan Digital Sky Survey MPS 390318
2005 10 30.380019 03 47 23.797 +01 08 06.58 20.75   645 – Apache Point-Sloan Digital Sky Survey MPS 390318
2005 11 01.34946 03 45 50.97 +01 01 34.0 19.4 V 703 – Catalina Sky Survey MPS 160500
2005 11 01.35730 03 45 50.61 +01 01 32.7 19.6 V 703 – Catalina Sky Survey MPS 160500
2005 11 01.36521 03 45 50.18 +01 01 32.0 19.5 V 703 – Catalina Sky Survey MPS 160500
2005 11 01.37312 03 45 49.82 +01 01 29.8 19.6 V 703 – Catalina Sky Survey MPS 160500
2005 11 02.459657 03 44 56.690 +00 58 06.44 20.05 V 645 – Apache Point-Sloan Digital Sky Survey MPS 390318
2005 11 02.463129 03 44 56.512 +00 58 05.82 20.94   645 – Apache Point-Sloan Digital Sky Survey MPS 390318
2005 11 06.377127 03 41 37.235 +00 47 18.46 19.74 V 645 – Apache Point-Sloan Digital Sky Survey MPS 390318
2005 11 06.380599 03 41 37.047 +00 47 17.96 20.67   645 – Apache Point-Sloan Digital Sky Survey MPS 390318
2005 11 09.433797 03 38 53.915 +00 40 34.59 20.62 V 645 – Apache Point-Sloan Digital Sky Survey MPS 390318
2005 11 09.437269 03 38 53.720 +00 40 34.14 21.65   645 – Apache Point-Sloan Digital Sky Survey MPS 390318
2005 11 12.35751 03 36 13.75 +00 35 38.5 19.2 V 703 – Catalina Sky Survey MPS 160500
2005 11 12.36397 03 36 13.42 +00 35 38.3 19.4 V 703 – Catalina Sky Survey MPS 160500
2005 11 12.37039 03 36 13.06 +00 35 38.9 19.4 V 703 – Catalina Sky Survey MPS 160500
2005 11 12.37683 03 36 12.49 +00 35 38.8 20.5 V 703 – Catalina Sky Survey MPS 160500
2005 11 13.319237 03 35 20.519 +00 34 22.80 19.65 V 645 – Apache Point-Sloan Digital Sky Survey MPS 390318
2005 11 13.322709 03 35 20.309 +00 34 22.51 20.60   645 – Apache Point-Sloan Digital Sky Survey MPS 390318
2005 11 22.376337 03 26 57.363 +00 31 13.00 19.77 V 645 – Apache Point-Sloan Digital Sky Survey MPS 390318
2005 11 22.379809 03 26 57.172 +00 31 13.18 20.70   645 – Apache Point-Sloan Digital Sky Survey MPS 390318
2005 11 23.367027 03 26 03.504 +00 31 52.84 19.76 V 645 – Apache Point-Sloan Digital Sky Survey MPS 390318
2005 11 23.370499 03 26 03.306 +00 31 52.99 20.67   645 – Apache Point-Sloan Digital Sky Survey MPS 390318
2005 11 26.364137 03 23 23.679 +00 35 08.92 19.84 V 645 – Apache Point-Sloan Digital Sky Survey MPS 390318
2005 11 26.367609 03 23 23.499 +00 35 09.33 20.73   645 – Apache Point-Sloan Digital Sky Survey MPS 390318
2005 11 28.20741 03 21 48.65 +00 38 06.0 20.3 R 644 – Palomar Mountain/NEAT MPS 154082
2005 11 28.22946 03 21 47.50 +00 38 08.4 20.4 R 644 – Palomar Mountain/NEAT MPS 154082
2005 11 28.25773 03 21 45.98 +00 38 11.7 20.5 R 644 – Palomar Mountain/NEAT MPS 154082
2005 11 29.20317 03 20 58.20 +00 39 56.8 19.8 V 703 – Catalina Sky Survey MPS 154082
2005 11 29.20962 03 20 57.94 +00 39 59.0 19.2 V 703 – Catalina Sky Survey MPS 154082
2005 11 29.21606 03 20 57.51 +00 39 59.5 20.0 V 703 – Catalina Sky Survey MPS 154082
2005 11 29.22250 03 20 57.12 +00 40 01.8 19.1 V 703 – Catalina Sky Survey MPS 154082
2005 11 30.347387 03 20 01.044 +00 42 25.12 19.89 V 645 – Apache Point-Sloan Digital Sky Survey MPS 390318
2005 11 30.350859 03 20 00.867 +00 42 25.59 20.81   645 – Apache Point-Sloan Digital Sky Survey MPS 390318
2007 02 16.35302 11 25 13.36 +17 12 53.9 19.8 V 703 – Catalina Sky Survey MPS 199508
2007 02 16.36023 11 25 13.15 +17 12 59.1 19.6 V 703 – Catalina Sky Survey MPS 199508
2007 02 16.36745 11 25 12.75 +17 13 01.9 19.6 V 703 – Catalina Sky Survey MPS 199508
2007 02 16.37463 11 25 12.57 +17 13 06.8 20.5 V 703 – Catalina Sky Survey MPS 199508
2007 02 23.31824 11 20 15.10 +18 16 54.8 20.0 V 703 – Catalina Sky Survey MPS 201551
2007 02 23.32620 11 20 14.67 +18 16 58.3 19.5 V 703 – Catalina Sky Survey MPS 201551
2007 02 23.33415 11 20 14.35 +18 17 04.3 19.6 V 703 – Catalina Sky Survey MPS 201551
2007 02 23.34214 11 20 13.92 +18 17 08.0 19.9 V 703 – Catalina Sky Survey MPS 201551
2007 03 09.40198 11 08 48.33 +20 13 01.9 19.4 V 703 – Catalina Sky Survey MPS 202369
2007 03 09.40954 11 08 47.72 +20 13 03.8 20.8 V 703 – Catalina Sky Survey MPS 202369
2007 03 09.41720 11 08 47.43 +20 13 08.3 19.8 V 703 – Catalina Sky Survey MPS 202369
2007 03 09.42490 11 08 47.14 +20 13 11.3 19.0 V 703 – Catalina Sky Survey MPS 202369
2009 09 16.29440 00 28 45.01 -15 45 12.6 18.9 V 703 – Catalina Sky Survey MPS 295026
2009 09 16.30104 00 28 44.76 -15 45 16.5 19.2 V 703 – Catalina Sky Survey MPS 295026
2009 09 16.30772 00 28 44.50 -15 45 20.0 19.2 V 703 – Catalina Sky Survey MPS 295026
2009 09 16.31434 00 28 44.14 -15 45 23.4 19.1 V 703 – Catalina Sky Survey MPS 295026
2009 09 24.29929 00 22 35.43 -16 48 43.5 18.4 V 703 – Catalina Sky Survey MPS 295866
2009 09 24.30576 00 22 35.22 -16 48 45.6 19.1 V 703 – Catalina Sky Survey MPS 295866
2009 09 24.31220 00 22 34.89 -16 48 48.8 19.2 V 703 – Catalina Sky Survey MPS 295866
2009 09 24.31853 00 22 34.53 -16 48 51.5 18.9 V 703 – Catalina Sky Survey MPS 295866
2009 10 15.23974 00 06 46.69 -18 28 05.1 19.3 V 703 – Catalina Sky Survey MPS 300518
2009 10 15.24824 00 06 46.29 -18 28 05.4 19.1 V 703 – Catalina Sky Survey MPS 300518
2009 10 15.25674 00 06 45.93 -18 28 07.2 19.2 V 703 – Catalina Sky Survey MPS 300518
2009 10 15.26528 00 06 45.64 -18 28 07.8 19.5 V 703 – Catalina Sky Survey MPS 300518
2009 10 22.20759 00 02 45.27 -18 35 05.6 19.6 V 703 – Catalina Sky Survey MPS 301925
2009 10 22.21605 00 02 44.88 -18 35 05.0 20.1 V 703 – Catalina Sky Survey MPS 301925
2009 10 22.22444 00 02 44.73 -18 35 06.7 19.7 V 703 – Catalina Sky Survey MPS 301925
2009 10 22.23290 00 02 44.37 -18 35 05.1 19.7 V 703 – Catalina Sky Survey MPS 301925
2009 11 17.15654 23 57 49.32 -17 14 15.3 19.5 V 703 – Catalina Sky Survey MPS 304680
2009 11 17.16560 23 57 49.28 -17 14 09.5 20.6 V 703 – Catalina Sky Survey MPS 304680
2009 11 17.17469 23 57 49.50 -17 14 07.1 20.1 V 703 – Catalina Sky Survey MPS 304680
2009 11 17.18374 23 57 49.50 -17 14 02.7 20.2 V 703 – Catalina Sky Survey MPS 304680
2010 12 05.43291 08 37 54.08 +16 15 58.9 20.1 V G96 – Mt. Lemmon Survey MPS 362509
2010 12 05.44051 08 37 54.08 +16 16 00.5 20.2 V G96 – Mt. Lemmon Survey MPS 362509
2010 12 05.44811 08 37 54.08 +16 16 01.7 20.0 V G96 – Mt. Lemmon Survey MPS 362509
2010 12 05.45572 08 37 54.08 +16 16 03.6 20.2 V G96 – Mt. Lemmon Survey MPS 362509
